Cook, MN

1:21 PM CST on February 23, 2018 (GMT -0600)
Cook Municipal

Weather History for KCQM - December, 2013

Change the Weather History Date:

Tuesday, December 31, 2013

  Actual Average Record
Temperature  
Mean Temperature -22 °F -  
Max Temperature -11 °F 15 °F 37 °F (2004)
Min Temperature -34 °F 0 °F -34 °F (2013)
Degree Days  
Heating Degree Days 88    
Moisture  
Dew Point -32 °F    
Average Humidity 72    
Maximum Humidity 83    
Minimum Humidity 64    
Precipitation  
Precipitation 0.00 in - - ()
Sea Level Pressure  
Sea Level Pressure 30.20 in    
Wind  
Wind Speed 2 mph (West)    
Max Wind Speed 8 mph    
Max Gust Speed -    
Visibility 10 miles    
Events      
Averages and records for this station are not official NWS values.
T = Trace of Precipitation, MM = Missing Value Source: NWS Daily Summary

Daily Weather History Graph

Daily Weather History Graph

Search for Another Location

Airport or City:

Trip Planner

Search our weather history database for the weather conditions in past years. The results will help you decide how hot, cold, wet, or windy it might be!

Date:

Astronomy

Dec. 31, 2013 Rise Set
Actual Time 7:59 AM CST 4:28 PM CST
Civil Twilight 7:23 AM CST 5:04 PM CST
Nautical Twilight 6:44 AM CST 5:43 PM CST
Astronomical Twilight 6:06 AM CST 6:21 PM CST
Moon 6:49 AM CST (12/31) 4:08 PM CST (12/31)
Length of Visible Light 9h 40m
Length of Day
8h 28m
Waning Crescent, 1% of the Moon is Illuminated
Dec 31
Waning Crescent
Jan 1
New
Jan 7
First Quarter
Jan 15
Full
Jan 23
Last Quarter

Hourly Weather History & Observations

Time (CST) Temp. Windchill Dew Point Humidity Pressure Visibility Wind Dir Wind Speed Gust Speed Precip Events Conditions
12:16 AM -34.6 °F - -41.8 °F 68% 30.07 in - Calm Calm - N/A   Clear
12:37 AM -34.6 °F - -41.8 °F 68% 30.06 in - Calm Calm - N/A   Clear
12:56 AM -34.6 °F - -41.8 °F 68% 30.06 in - Calm Calm - N/A   Clear
1:17 AM -34.6 °F -50.3 °F -41.8 °F 68% 30.06 in - WSW 4.6 mph - N/A   Clear
1:36 AM -32.8 °F -45.3 °F -38.2 °F 75% 30.06 in - West 3.5 mph - N/A   Scattered Clouds
1:56 AM -25.6 °F -39.8 °F -31.0 °F 76% 30.06 in 2.5 mi West 4.6 mph - N/A   Haze
2:17 AM -25.6 °F - -32.8 °F 69% 30.06 in 7.0 mi Calm Calm - N/A   Mostly Cloudy
2:36 AM -25.6 °F - -31.0 °F 76% 30.07 in 10.0 mi Calm Calm - N/A   Mostly Cloudy
2:57 AM -25.6 °F -37.1 °F -32.8 °F 69% 30.07 in 10.0 mi WNW 3.5 mph - N/A   Clear
3:17 AM -27.4 °F - -32.8 °F 75% 30.08 in 10.0 mi Calm Calm - N/A   Clear
3:36 AM -27.4 °F - -34.6 °F 69% 30.08 in 10.0 mi Calm Calm - N/A   Clear
3:57 AM -27.4 °F - -34.6 °F 69% 30.07 in 10.0 mi Calm Calm - N/A   Clear
4:17 AM -27.4 °F - -34.6 °F 69% 30.07 in 10.0 mi Calm Calm - N/A   Clear
4:36 AM -31.0 °F - -38.2 °F 68% 30.07 in 10.0 mi Calm Calm - N/A   Clear
4:57 AM -27.4 °F - -34.6 °F 69% 30.08 in 10.0 mi Calm Calm - N/A   Clear
5:16 AM -32.8 °F - -38.2 °F 75% 30.08 in 10.0 mi Calm Calm - N/A   Clear
5:37 AM -32.8 °F - -38.2 °F 75% 30.09 in - Calm Calm - N/A   Clear
5:56 AM -29.2 °F -41.2 °F -36.4 °F 68% 30.09 in - WNW 3.5 mph - N/A   Clear
6:17 AM -29.2 °F -41.2 °F -36.4 °F 68% 30.10 in - WNW 3.5 mph - N/A   Clear
6:36 AM -27.4 °F -41.9 °F -32.8 °F 75% 30.10 in 10.0 mi WNW 4.6 mph - N/A   Clear
6:56 AM -27.4 °F -39.2 °F -34.6 °F 69% 30.11 in 10.0 mi West 3.5 mph - N/A   Clear
7:17 AM -29.2 °F - -34.6 °F 75% 30.11 in 10.0 mi Calm Calm - N/A   Clear
7:36 AM -29.2 °F -41.2 °F -36.4 °F 68% 30.12 in 10.0 mi West 3.5 mph - N/A   Clear
7:57 AM -29.2 °F - -34.6 °F 75% 30.13 in 10.0 mi Calm Calm - N/A   Clear
8:16 AM -29.2 °F - -36.4 °F 68% 30.14 in - Calm Calm - N/A   Clear
8:36 AM -31.0 °F -43.3 °F -36.4 °F 75% 30.15 in - West 3.5 mph - N/A   Clear
8:57 AM -27.4 °F -39.2 °F -34.6 °F 69% 30.17 in - West 3.5 mph - N/A   Clear
9:16 AM -27.4 °F -41.9 °F -34.6 °F 69% 30.18 in - West 4.6 mph - N/A   Clear
9:36 AM -25.6 °F -39.8 °F -32.8 °F 69% 30.20 in - WNW 4.6 mph - N/A   Clear
9:57 AM -23.8 °F -37.7 °F -29.2 °F 76% 30.20 in - WNW 4.6 mph - N/A   Clear
10:16 AM -22.0 °F -37.7 °F -27.4 °F 76% 30.21 in 10.0 mi WNW 5.8 mph - N/A   Clear
10:29 AM -20.2 °F -33.5 °F -25.6 °F 76% 30.22 in 10.0 mi WNW 4.6 mph - N/A   Clear
1:19 PM -14.8 °F -29.1 °F -20.2 °F 77% 30.22 in 10.0 mi West 5.8 mph - N/A   Clear
1:36 PM -13.0 °F -28.6 °F -20.2 °F 70% 30.22 in 10.0 mi West 6.9 mph - N/A   Clear
1:56 PM -13.0 °F -30.0 °F -20.2 °F 70% 30.22 in 10.0 mi West 8.1 mph - N/A   Clear
2:16 PM -11.2 °F -24.8 °F -20.2 °F 64% 30.23 in 10.0 mi WNW 5.8 mph - N/A   Clear
2:37 PM -11.2 °F -27.8 °F -20.2 °F 64% 30.23 in 10.0 mi West 8.1 mph - N/A   Clear
2:57 PM -11.2 °F -27.8 °F -20.2 °F 64% 30.24 in 10.0 mi West 8.1 mph - N/A   Clear
3:16 PM -13.0 °F -27.0 °F -20.2 °F 70% 30.24 in 10.0 mi West 5.8 mph - N/A   Clear
3:37 PM -13.0 °F -25.1 °F -20.2 °F 70% 30.25 in 10.0 mi WNW 4.6 mph - N/A   Clear
3:57 PM -13.0 °F -22.7 °F -20.2 °F 70% 30.26 in 10.0 mi NW 3.5 mph - N/A   Clear
4:16 PM -14.8 °F - -22.0 °F 70% 30.26 in 10.0 mi Calm Calm - N/A   Clear
4:37 PM -14.8 °F -24.8 °F -22.0 °F 70% 30.27 in 10.0 mi WNW 3.5 mph - N/A   Clear
4:56 PM -16.6 °F - -23.8 °F 70% 30.27 in 10.0 mi Calm Calm - N/A   Clear
5:16 PM -20.2 °F - -25.6 °F 76% 30.28 in 10.0 mi Calm Calm - N/A   Clear
5:37 PM -23.8 °F - -29.2 °F 76% 30.28 in 10.0 mi Calm Calm - N/A   Clear
5:56 PM -23.8 °F - -27.4 °F 83% 30.29 in 10.0 mi Calm Calm - N/A   Clear
6:17 PM -25.6 °F - -31.0 °F 76% 30.29 in 10.0 mi Calm Calm - N/A   Clear
6:36 PM -25.6 °F - -32.8 °F 69% 30.30 in 10.0 mi Calm Calm - N/A   Clear
6:57 PM -27.4 °F -39.2 °F -32.8 °F 75% 30.32 in 10.0 mi West 3.5 mph - N/A   Clear
7:16 PM -25.6 °F - -29.2 °F 83% 30.32 in 10.0 mi Calm Calm - N/A   Clear
7:37 PM -29.2 °F - -34.6 °F 75% 30.32 in 10.0 mi Calm Calm - N/A   Clear
7:56 PM -29.2 °F - -34.6 °F 75% 30.33 in 10.0 mi Calm Calm - N/A   Clear
8:16 PM -29.2 °F - -36.4 °F 68% 30.34 in 10.0 mi Calm Calm - N/A   Clear
8:37 PM -29.2 °F - -36.4 °F 68% 30.34 in 10.0 mi Calm Calm - N/A   Clear
8:57 PM -31.0 °F - -38.2 °F 68% 30.34 in 10.0 mi Calm Calm - N/A   Clear
9:16 PM -32.8 °F - -38.2 °F 75% 30.34 in 10.0 mi Calm Calm - N/A   Clear
9:37 PM -32.8 °F - -38.2 °F 75% 30.34 in 10.0 mi Calm Calm - N/A   Clear
9:56 PM -32.8 °F - -38.2 °F 75% 30.35 in 10.0 mi Calm Calm - N/A   Clear
10:16 PM -32.8 °F - -38.2 °F 75% 30.36 in 4.0 mi Calm Calm - N/A   Haze
10:36 PM -32.8 °F - -38.2 °F 75% 30.36 in 4.0 mi Calm Calm - N/A   Haze
10:57 PM -32.8 °F - -38.2 °F 75% 30.36 in 10.0 mi Calm Calm - N/A   Clear
11:16 PM -31.0 °F - -38.2 °F 68% 30.36 in 10.0 mi Calm Calm - N/A   Clear
11:37 PM -31.0 °F - -36.4 °F 75% 30.37 in 10.0 mi Calm Calm - N/A   Clear
11:56 PM -31.0 °F - -36.4 °F 75% 30.37 in 10.0 mi Calm Calm - N/A   Clear